Regional Weather Roundup
Issued by NWS

Home | Current Version | Previous Version | Graphics & Text | Print | Product List | Glossary On
Versions: 1 2 3 4 5 6 7 8 9 10 11 12 13 14 15 16 17 18 19 20 21 22 23 24 25 26 27 28 29 30 31 32 33 34 35 36 37 38 39 40 41 42 43 44 45 46 47 48 49 50
730
ASUS44 KJAN 241303
RWRMS

MISSISSIPPI HOURLY WEATHER ROUNDUP
NATIONAL WEATHER SERVICE JACKSON MS
800 AM CDT FRI OCT 24 2014

NOTE: "FAIR: INDICATES FEW OR NO CLOUDS BELOW 12,000 FEET WITH NO
SIGNIFICANT WEATHER AND/OR OBSTRUCTIONS TO VISIBILITY.

MSZ001>002-007>008-010>013-018>021-025>028-034>036-241400-
NORTHWEST MISSISSIPPI

CITY           SKY/WX    TMP DP  RH WIND       PRES   REMARKS
CLARKSDALE     FAIR      45  45 100 CALM      30.17R
CLEVELAND      FAIR      47  47 100 CALM      30.15R FOG
GREENWOOD      MOCLDY    45  44  97 CALM      30.15S FOG
GREENVILLE     CLEAR     47  46  97 CALM      30.15R FOG
GRENADA          N/A    N/A N/A N/A MISG        N/A
OLIVE BRANCH   PTCLDY    43  43 100 CALM      30.16R
OXFORD         FAIR      41  41 100 CALM      30.17R
TUNICA         FOG       43  41  93 CALM      30.17R VSB<1/4
$$

MSZ003>006-009-014>017-022>024-029>033-037>039-241400-
NORTHEAST MISSISSIPPI

CITY           SKY/WX    TMP DP  RH WIND       PRES   REMARKS
COLUMBUS AFB   CLEAR     49  48  97 NW3       30.13R
CORINTH        FAIR      45  45 100 CALM      30.15R FOG
GOLDN TRIANGLE CLEAR     46  43  87 NW5       30.13R
STARKVILLE     FAIR      48  46  93 CALM      30.14R
TUPELO         CLEAR     49  45  86 N3        30.13R
$$

MSZ040-058-241400-
CENTRAL MISSISSIPPI

CITY           SKY/WX    TMP DP  RH WIND       PRES   REMARKS
JACKSON INTL   PTCLDY    45  44  97 CALM      30.14R
JACKSON HAWKNS CLEAR     47  44  90 NW5       30.14R
MERIDIAN KEY   MOSUNNY   47  45  93 CALM      30.12R
MERIDIAN NAS   PTSUNNY   50  48  93 CALM      30.11S
RAYMOND        FAIR      41  36  81 CALM      30.14R HAZE
VICKSBURG      MOCLDY    43  41  93 CALM      30.16R FOG
$$

MSZ059>079-241400-
SOUTH MISSISSIPPI

CITY           SKY/WX    TMP DP  RH WIND       PRES   REMARKS
BROOKHAVEN     FAIR      46  46 100 CALM      30.15R FOG
COLUMBIA         N/A    N/A N/A N/A MISG        N/A
HATTIESBURG    SUNNY     47  46  97 CALM      30.12R
MCCOMB         CLEAR     50  47  89 N3        30.12R
NATCHEZ        CLOUDY    46  43  87 CALM      30.15R VSB<1/4
PINE BELT      CLEAR     48  45  87 CALM      30.13R
$$

MSZ080>082-241400-
COASTAL MISSISSIPPI

CITY           SKY/WX    TMP DP  RH WIND       PRES   REMARKS
BAY ST LOUIS   SUNNY     48  46  93 CALM      30.10R
BILOXI         SUNNY     54  48  79 NE5       30.09R
PASCAGOULA     SUNNY     50  48  93 CALM      30.09S
GULFPORT       SUNNY     53  48  83 CALM      30.09R
$$



USA.gov is the U.S. government's official web portal to all federal, state and local government web resources and services.